Time,TemperatureF,DewpointF,PressureIn,WindDirection,WindDirectionDegrees,WindSpeedMPH,WindSpeedGustMPH,Humidity,HourlyPrecipIn,Conditions,Clouds,dailyrainin,SoftwareType,DateUTC
2013-02-27 00:00:00,29.0,26.0,30.28,South,180,0.0,0.0,88,0.00,,,0.00,Rainwise IP-100,2013-02-27 05:00:00,
2013-02-27 00:05:00,28.9,26.0,30.30,South,180,0.0,0.0,89,0.00,,,0.00,Rainwise IP-100,2013-02-27 05:05:00,
2013-02-27 00:10:00,28.9,26.0,30.29,South,180,0.0,0.0,90,0.00,,,0.00,Rainwise IP-100,2013-02-27 05:10:00,
2013-02-27 00:15:00,28.9,26.0,30.31,South,180,0.0,0.0,90,0.00,,,0.00,Rainwise IP-100,2013-02-27 05:15:00,
2013-02-27 00:20:00,28.5,28.0,30.29,South,180,1.2,1.2,91,0.00,,,0.00,Rainwise IP-100,2013-02-27 05:20:00,
2013-02-27 00:25:00,28.2,26.0,30.28,South,180,0.0,1.4,91,0.00,,,0.00,Rainwise IP-100,2013-02-27 05:25:00,
2013-02-27 00:30:00,28.1,26.0,30.30,South,180,0.0,0.0,91,0.00,,,0.00,Rainwise IP-100,2013-02-27 05:30:00,
2013-02-27 00:35:00,28.3,26.0,30.30,South,180,0.0,0.0,92,0.00,,,0.00,Rainwise IP-100,2013-02-27 05:35:00,
2013-02-27 00:40:00,28.6,28.0,30.31,South,180,0.0,0.0,92,0.00,,,0.00,Rainwise IP-100,2013-02-27 05:40:00,
2013-02-27 00:45:00,28.6,28.0,30.30,South,180,0.0,0.0,93,0.00,,,0.00,Rainwise IP-100,2013-02-27 05:45:00,
2013-02-27 00:50:00,28.6,28.0,30.30,South,180,0.0,0.0,93,0.00,,,0.00,Rainwise IP-100,2013-02-27 05:50:00,
2013-02-27 00:55:00,28.5,28.0,30.26,South,180,0.0,0.0,93,0.00,,,0.00,Rainwise IP-100,2013-02-27 05:55:00,
2013-02-27 01:00:00,28.3,26.0,30.29,South,180,0.0,0.0,93,0.00,,,0.00,Rainwise IP-100,2013-02-27 06:00:00,
2013-02-27 01:05:00,28.2,26.0,30.27,South,180,0.0,0.0,94,0.00,,,0.00,Rainwise IP-100,2013-02-27 06:05:00,
2013-02-27 01:10:00,28.2,26.0,30.26,South,180,0.0,0.0,94,0.00,,,0.00,Rainwise IP-100,2013-02-27 06:10:00,
2013-02-27 01:15:00,27.9,26.0,30.26,South,180,0.0,0.0,94,0.00,,,0.00,Rainwise IP-100,2013-02-27 06:15:00,
2013-02-27 01:20:00,27.8,26.0,30.29,South,180,1.4,1.4,94,0.00,,,0.00,Rainwise IP-100,2013-02-27 06:20:00,
2013-02-27 01:25:00,27.5,26.0,30.29,South,180,0.0,1.6,94,0.00,,,0.00,Rainwise IP-100,2013-02-27 06:25:00,
2013-02-27 01:30:00,27.3,26.0,30.29,South,180,0.0,0.0,94,0.00,,,0.00,Rainwise IP-100,2013-02-27 06:30:00,
2013-02-27 01:35:00,27.6,26.0,30.28,South,180,0.0,0.0,94,0.00,,,0.00,Rainwise IP-100,2013-02-27 06:35:00,
2013-02-27 01:40:00,27.9,26.0,30.28,South,180,0.0,0.0,94,0.00,,,0.00,Rainwise IP-100,2013-02-27 06:40:00,
2013-02-27 01:45:00,27.9,26.0,30.27,South,180,0.0,0.0,94,0.00,,,0.00,Rainwise IP-100,2013-02-27 06:45:00,
2013-02-27 01:50:00,28.2,26.0,30.27,South,180,0.0,0.0,94,0.00,,,0.00,Rainwise IP-100,2013-02-27 06:50:00,
2013-02-27 01:55:00,28.4,26.0,30.27,South,180,0.0,0.0,95,0.00,,,0.00,Rainwise IP-100,2013-02-27 06:55:00,
2013-02-27 02:00:00,28.7,28.0,30.29,South,180,0.0,0.0,95,0.00,,,0.00,Rainwise IP-100,2013-02-27 07:00:00,
2013-02-27 02:05:00,28.8,28.0,30.27,South,180,0.0,0.0,95,0.00,,,0.00,Rainwise IP-100,2013-02-27 07:05:00,
2013-02-27 02:10:00,28.8,28.0,30.26,South,180,0.0,0.0,95,0.00,,,0.00,Rainwise IP-100,2013-02-27 07:10:00,
2013-02-27 02:15:00,28.7,28.0,30.23,South,180,0.0,0.0,95,0.00,,,0.00,Rainwise IP-100,2013-02-27 07:15:00,
2013-02-27 02:20:00,28.5,28.0,30.22,South,180,0.0,0.0,95,0.00,,,0.00,Rainwise IP-100,2013-02-27 07:20:00,
2013-02-27 02:25:00,28.3,26.0,30.25,South,180,0.0,0.0,95,0.00,,,0.00,Rainwise IP-100,2013-02-27 07:25:00,
2013-02-27 02:30:00,28.2,26.0,30.24,South,180,0.0,0.0,95,0.00,,,0.00,Rainwise IP-100,2013-02-27 07:30:00,
2013-02-27 02:35:00,28.3,26.0,30.23,South,180,0.0,0.0,95,0.00,,,0.00,Rainwise IP-100,2013-02-27 07:35:00,
2013-02-27 02:40:00,28.2,26.0,30.25,South,180,1.4,0.0,96,0.00,,,0.00,Rainwise IP-100,2013-02-27 07:40:00,
2013-02-27 02:45:00,27.8,26.0,30.25,South,180,1.2,1.6,96,0.00,,,0.00,Rainwise IP-100,2013-02-27 07:45:00,
2013-02-27 02:50:00,27.7,26.0,30.24,South,180,1.2,1.9,96,0.00,,,0.00,Rainwise IP-100,2013-02-27 07:50:00,
2013-02-27 02:55:00,27.9,26.0,30.22,South,180,0.0,2.6,96,0.00,,,0.00,Rainwise IP-100,2013-02-27 07:55:00,
2013-02-27 03:00:00,28.2,26.0,30.24,SSW,202,0.0,2.3,96,0.00,,,0.00,Rainwise IP-100,2013-02-27 08:00:00,
2013-02-27 03:05:00,28.3,26.0,30.23,SSW,202,0.0,1.9,96,0.00,,,0.00,Rainwise IP-100,2013-02-27 08:05:00,
2013-02-27 03:10:00,28.3,26.0,30.23,SSW,202,0.0,1.4,96,0.00,,,0.00,Rainwise IP-100,2013-02-27 08:10:00,
2013-02-27 03:15:00,28.7,28.0,30.24,SSW,202,1.2,3.7,96,0.00,,,0.00,Rainwise IP-100,2013-02-27 08:15:00,
2013-02-27 03:20:00,29.3,28.0,30.23,SSW,202,1.2,3.3,96,0.00,,,0.00,Rainwise IP-100,2013-02-27 08:20:00,
2013-02-27 03:25:00,29.8,29.0,30.24,South,180,3.7,3.7,96,0.00,,,0.00,Rainwise IP-100,2013-02-27 08:25:00,
2013-02-27 03:30:00,30.3,29.0,30.24,SSW,202,3.0,4.7,96,0.00,,,0.00,Rainwise IP-100,2013-02-27 08:30:00,
2013-02-27 03:35:00,30.7,29.0,30.25,SSW,202,2.6,4.0,95,0.00,,,0.00,Rainwise IP-100,2013-02-27 08:35:00,
2013-02-27 03:40:00,30.9,29.0,30.23,SSW,202,0.0,4.0,95,0.00,,,0.00,Rainwise IP-100,2013-02-27 08:40:00,
2013-02-27 03:45:00,30.9,29.0,30.23,SSW,202,0.0,0.0,94,0.00,,,0.00,Rainwise IP-100,2013-02-27 08:45:00,
2013-02-27 03:50:00,30.6,29.0,30.23,SSW,202,0.0,0.0,94,0.00,,,0.00,Rainwise IP-100,2013-02-27 08:50:00,
2013-02-27 03:55:00,30.3,29.0,30.23,SSW,202,0.0,0.0,94,0.00,,,0.00,Rainwise IP-100,2013-02-27 08:55:00,
2013-02-27 04:00:00,30.2,29.0,30.24,SSW,202,0.0,0.0,94,0.00,,,0.00,Rainwise IP-100,2013-02-27 09:00:00,
2013-02-27 04:05:00,30.1,29.0,30.20,SSW,202,0.0,0.0,94,0.00,,,0.00,Rainwise IP-100,2013-02-27 09:05:00,
2013-02-27 04:10:00,30.0,29.0,30.23,SSW,202,0.0,1.2,94,0.00,,,0.00,Rainwise IP-100,2013-02-27 09:10:00,
2013-02-27 04:15:00,30.1,29.0,30.24,SSW,202,0.0,0.0,94,0.00,,,0.00,Rainwise IP-100,2013-02-27 09:15:00,
2013-02-27 04:20:00,29.9,29.0,30.26,SSW,202,0.0,1.2,95,0.00,,,0.00,Rainwise IP-100,2013-02-27 09:20:00,
2013-02-27 04:25:00,29.8,29.0,30.22,SSW,202,4.0,4.0,94,0.00,,,0.00,Rainwise IP-100,2013-02-27 09:25:00,
2013-02-27 04:30:00,30.3,29.0,30.21,SSW,202,2.6,4.9,94,0.00,,,0.00,Rainwise IP-100,2013-02-27 09:30:00,
2013-02-27 04:35:00,31.1,29.0,30.22,SSW,202,3.3,4.4,94,0.00,,,0.00,Rainwise IP-100,2013-02-27 09:35:00,
2013-02-27 04:40:00,31.5,31.0,30.23,SSW,202,0.0,4.2,93,0.00,,,0.00,Rainwise IP-100,2013-02-27 09:40:00,
2013-02-27 04:45:00,31.4,29.0,30.24,SSW,202,0.0,2.1,92,0.00,,,0.00,Rainwise IP-100,2013-02-27 09:45:00,
2013-02-27 04:50:00,31.3,29.0,30.22,ESE,112,0.0,0.0,92,0.00,,,0.00,Rainwise IP-100,2013-02-27 09:50:00,
2013-02-27 04:55:00,31.4,29.0,30.23,SSW,202,1.6,0.0,92,0.00,,,0.00,Rainwise IP-100,2013-02-27 09:55:00,
2013-02-27 05:00:00,31.4,29.0,30.24,SSE,157,3.0,3.3,92,0.00,,,0.00,Rainwise IP-100,2013-02-27 10:00:00,
2013-02-27 05:05:00,31.4,29.0,30.22,SSW,202,1.2,4.2,92,0.00,,,0.00,Rainwise IP-100,2013-02-27 10:05:00,
2013-02-27 05:10:00,31.6,31.0,30.23,SW,225,0.0,4.7,92,0.00,,,0.00,Rainwise IP-100,2013-02-27 10:10:00,
2013-02-27 05:15:00,31.7,29.0,30.25,SW,225,0.0,2.8,91,0.00,,,0.00,Rainwise IP-100,2013-02-27 10:15:00,
2013-02-27 05:16:00,31.7,29.0,30.23,SW,225,0.0,0.0,91,0.00,,,0.00,Rainwise IP-100,2013-02-27 10:16:00,
2013-02-27 05:21:00,31.5,29.0,30.23,SW,225,0.0,1.4,91,0.00,,,0.00,Rainwise IP-100,2013-02-27 10:21:00,
2013-02-27 05:26:00,31.3,28.0,30.24,SW,225,0.0,0.0,91,0.00,,,0.00,Rainwise IP-100,2013-02-27 10:26:00,
2013-02-27 05:31:00,31.2,28.0,30.24,SW,225,0.0,0.0,91,0.00,,,0.00,Rainwise IP-100,2013-02-27 10:31:00,
2013-02-27 05:36:00,31.2,28.0,30.24,SW,225,0.0,0.0,91,0.00,,,0.00,Rainwise IP-100,2013-02-27 10:36:00,
2013-02-27 05:41:00,31.3,28.0,30.23,SW,225,0.0,0.0,91,0.00,,,0.00,Rainwise IP-100,2013-02-27 10:41:00,
2013-02-27 05:46:00,31.5,29.0,30.24,SW,225,0.0,0.0,91,0.00,,,0.00,Rainwise IP-100,2013-02-27 10:46:00,
2013-02-27 05:51:00,31.8,31.0,30.26,East,90,2.8,6.1,92,0.00,,,0.00,Rainwise IP-100,2013-02-27 10:51:00,
2013-02-27 05:56:00,32.0,29.0,30.23,ESE,112,0.0,5.1,91,0.00,,,0.00,Rainwise IP-100,2013-02-27 10:56:00,
2013-02-27 06:01:00,32.0,29.0,30.26,SSW,202,0.0,1.9,91,0.00,,,0.00,Rainwise IP-100,2013-02-27 11:01:00,
2013-02-27 06:06:00,31.9,29.0,30.22,SSE,157,3.5,3.5,91,0.00,,,0.00,Rainwise IP-100,2013-02-27 11:06:00,
2013-02-27 06:11:00,31.9,29.0,30.22,ESE,112,0.0,3.5,91,0.00,,,0.00,Rainwise IP-100,2013-02-27 11:11:00,
2013-02-27 06:16:00,31.8,29.0,30.24,SSE,157,3.0,3.0,91,0.00,,,0.00,Rainwise IP-100,2013-02-27 11:16:00,
2013-02-27 06:21:00,31.8,29.0,30.25,SW,225,0.0,6.8,91,0.00,,,0.00,Rainwise IP-100,2013-02-27 11:21:00,
2013-02-27 06:26:00,31.9,29.0,30.24,SW,225,0.0,2.6,91,0.00,,,0.00,Rainwise IP-100,2013-02-27 11:26:00,
2013-02-27 06:31:00,31.8,29.0,30.25,SW,225,0.0,2.6,91,0.00,,,0.00,Rainwise IP-100,2013-02-27 11:31:00,
2013-02-27 06:36:00,31.9,29.0,30.25,SSW,202,0.0,0.0,91,0.00,,,0.00,Rainwise IP-100,2013-02-27 11:36:00,
2013-02-27 06:41:00,31.9,29.0,30.22,SSW,202,0.0,1.6,91,0.00,,,0.00,Rainwise IP-100,2013-02-27 11:41:00,
2013-02-27 06:46:00,31.8,31.0,30.25,SSW,202,0.0,0.0,92,0.00,,,0.00,Rainwise IP-100,2013-02-27 11:46:00,
2013-02-27 06:51:00,31.8,31.0,30.23,South,180,1.2,1.4,92,0.00,,,0.00,Rainwise IP-100,2013-02-27 11:51:00,
2013-02-27 06:56:00,31.9,31.0,30.21,South,180,0.0,3.3,92,0.00,,,0.00,Rainwise IP-100,2013-02-27 11:56:00,
2013-02-27 07:02:00,32.0,31.0,30.21,South,180,0.0,2.1,92,0.00,,,0.00,Rainwise IP-100,2013-02-27 12:02:00,
2013-02-27 07:07:00,32.1,31.0,30.22,SSW,202,0.0,3.0,92,0.00,,,0.00,Rainwise IP-100,2013-02-27 12:07:00,
2013-02-27 07:12:00,32.3,31.0,30.23,SSW,202,0.0,1.4,92,0.00,,,0.00,Rainwise IP-100,2013-02-27 12:12:00,
2013-02-27 07:17:00,32.6,31.0,30.22,ESE,112,0.0,5.4,92,0.00,,,0.00,Rainwise IP-100,2013-02-27 12:17:00,
2013-02-27 07:22:00,33.0,31.0,30.24,SE,135,4.2,7.0,91,0.00,,,0.00,Rainwise IP-100,2013-02-27 12:22:00,
2013-02-27 07:27:00,33.4,31.0,30.23,ESE,112,7.2,9.1,90,0.00,,,0.00,Rainwise IP-100,2013-02-27 12:27:00,
2013-02-27 07:32:00,33.3,31.0,30.22,ESE,112,9.8,9.8,90,0.00,,,0.00,Rainwise IP-100,2013-02-27 12:32:00,
2013-02-27 07:37:00,33.0,31.0,30.20,East,90,4.7,10.0,90,0.00,,,0.00,Rainwise IP-100,2013-02-27 12:37:00,
2013-02-27 07:42:00,32.9,31.0,30.21,ESE,112,2.6,9.8,90,0.00,,,0.00,Rainwise IP-100,2013-02-27 12:42:00,
2013-02-27 07:47:00,32.8,31.0,30.22,ESE,112,5.1,9.3,91,0.00,,,0.00,Rainwise IP-100,2013-02-27 12:47:00,
2013-02-27 07:52:00,32.9,31.0,30.21,ESE,112,4.2,9.3,90,0.00,,,0.00,Rainwise IP-100,2013-02-27 12:52:00,
2013-02-27 07:57:00,33.1,31.0,30.19,East,90,5.1,9.1,90,0.00,,,0.00,Rainwise IP-100,2013-02-27 12:57:00,
2013-02-27 08:02:00,33.2,31.0,30.21,ESE,112,4.2,10.7,89,0.00,,,0.00,Rainwise IP-100,2013-02-27 13:02:00,
2013-02-27 08:07:00,33.3,31.0,30.19,SE,135,4.4,9.8,89,0.00,,,0.00,Rainwise IP-100,2013-02-27 13:07:00,
2013-02-27 08:12:00,33.7,32.0,30.20,SE,135,4.9,9.3,88,0.00,,,0.00,Rainwise IP-100,2013-02-27 13:12:00,
2013-02-27 08:17:00,34.0,31.0,30.22,ESE,112,7.7,11.7,87,0.00,,,0.00,Rainwise IP-100,2013-02-27 13:17:00,
2013-02-27 08:22:00,34.1,31.0,30.22,ESE,112,7.2,10.5,86,0.00,,,0.00,Rainwise IP-100,2013-02-27 13:22:00,
2013-02-27 08:27:00,34.3,31.0,30.19,SE,135,11.0,11.0,86,0.00,,,0.00,Rainwise IP-100,2013-02-27 13:27:00,
2013-02-27 08:30:00,34.6,31.0,30.21,SE,135,8.4,13.1,85,0.00,,,0.00,Rainwise IP-100,2013-02-27 13:30:00,
2013-02-27 08:35:00,35.1,31.0,30.21,ESE,112,7.0,14.9,84,0.00,,,0.00,Rainwise IP-100,2013-02-27 13:35:00,
2013-02-27 08:40:00,35.8,31.0,30.19,ESE,112,9.8,16.1,81,0.00,,,0.00,Rainwise IP-100,2013-02-27 13:40:00,
2013-02-27 08:45:00,36.4,29.0,30.19,ESE,112,10.5,17.5,78,0.00,,,0.00,Rainwise IP-100,2013-02-27 13:45:00,
2013-02-27 08:50:00,36.5,31.0,30.19,SE,135,9.6,19.4,77,0.00,,,0.00,Rainwise IP-100,2013-02-27 13:50:00,
2013-02-27 08:54:00,36.5,31.0,30.18,SSE,157,14.5,19.4,77,0.00,,,0.00,Rainwise IP-100,2013-02-27 13:54:00,
2013-02-27 08:59:00,36.5,31.0,30.18,South,180,2.8,17.3,76,0.00,,,0.00,Rainwise IP-100,2013-02-27 13:59:00,
2013-02-27 09:04:00,36.7,31.0,30.19,SE,135,7.0,18.9,76,0.00,,,0.00,Rainwise IP-100,2013-02-27 14:04:00,
2013-02-27 09:09:00,36.9,31.0,30.18,SE,135,11.7,20.1,75,0.00,,,0.00,Rainwise IP-100,2013-02-27 14:09:00,
2013-02-27 09:14:00,37.0,31.0,30.18,SSE,157,17.3,17.5,75,0.00,,,0.00,Rainwise IP-100,2013-02-27 14:14:00,
2013-02-27 09:19:00,37.1,29.0,30.16,SE,135,12.4,19.6,74,0.00,,,0.00,Rainwise IP-100,2013-02-27 14:19:00,
2013-02-27 09:24:00,37.3,29.0,30.19,SSE,157,13.1,21.5,74,0.00,,,0.00,Rainwise IP-100,2013-02-27 14:24:00,
2013-02-27 09:29:00,37.4,29.0,30.18,ESE,112,14.2,16.6,74,0.00,,,0.00,Rainwise IP-100,2013-02-27 14:29:00,
2013-02-27 09:34:00,37.5,31.0,30.18,ESE,112,8.6,18.7,74,0.00,,,0.00,Rainwise IP-100,2013-02-27 14:34:00,
2013-02-27 09:39:00,37.5,31.0,30.16,SSE,157,6.1,15.4,74,0.00,,,0.00,Rainwise IP-100,2013-02-27 14:39:00,
2013-02-27 09:44:00,37.4,29.0,30.14,ESE,112,15.4,16.8,74,0.00,,,0.00,Rainwise IP-100,2013-02-27 14:44:00,
2013-02-27 09:49:00,37.4,31.0,30.17,ESE,112,8.9,18.2,75,0.00,,,0.00,Rainwise IP-100,2013-02-27 14:49:00,
2013-02-27 09:54:00,37.3,31.0,30.17,ESE,112,17.3,19.8,75,0.00,,,0.00,Rainwise IP-100,2013-02-27 14:54:00,
2013-02-27 09:59:00,37.4,31.0,30.18,ESE,112,9.1,21.5,75,0.00,,,0.00,Rainwise IP-100,2013-02-27 14:59:00,
2013-02-27 10:04:00,37.5,31.0,30.16,ESE,112,14.2,21.0,74,0.00,,,0.00,Rainwise IP-100,2013-02-27 15:04:00,
2013-02-27 10:09:00,37.5,31.0,30.17,ESE,112,10.5,21.2,74,0.00,,,0.00,Rainwise IP-100,2013-02-27 15:09:00,
2013-02-27 10:14:00,37.6,31.0,30.13,SSE,157,8.4,17.5,74,0.00,,,0.00,Rainwise IP-100,2013-02-27 15:14:00,
2013-02-27 10:19:00,37.8,31.0,30.16,ESE,112,11.0,18.9,73,0.00,,,0.00,Rainwise IP-100,2013-02-27 15:19:00,
2013-02-27 10:24:00,37.8,31.0,30.15,ESE,112,16.6,21.2,73,0.00,,,0.00,Rainwise IP-100,2013-02-27 15:24:00,
2013-02-27 10:29:00,37.9,31.0,30.13,SE,135,11.0,22.4,73,0.00,,,0.00,Rainwise IP-100,2013-02-27 15:29:00,
2013-02-27 10:34:00,38.0,31.0,30.14,ESE,112,14.5,23.1,73,0.00,,,0.00,Rainwise IP-100,2013-02-27 15:34:00,
2013-02-27 10:39:00,37.9,31.0,30.15,ESE,112,12.4,23.1,73,0.00,,,0.00,Rainwise IP-100,2013-02-27 15:39:00,
2013-02-27 10:44:00,37.9,31.0,30.16,ESE,112,9.1,17.5,73,0.00,,,0.00,Rainwise IP-100,2013-02-27 15:44:00,
2013-02-27 10:49:00,37.7,31.0,30.15,SE,135,15.6,19.8,73,0.00,,,0.00,Rainwise IP-100,2013-02-27 15:49:00,
2013-02-27 10:54:00,37.4,29.0,30.12,ESE,112,11.4,21.0,72,0.00,,,0.00,Rainwise IP-100,2013-02-27 15:54:00,
2013-02-27 10:59:00,37.4,28.0,30.12,ESE,112,15.2,21.7,70,0.00,,,0.00,Rainwise IP-100,2013-02-27 15:59:00,
2013-02-27 11:04:00,37.4,28.0,30.15,SE,135,14.0,21.7,70,0.00,,,0.00,Rainwise IP-100,2013-02-27 16:04:00,
2013-02-27 11:09:00,37.5,29.0,30.14,ESE,112,14.0,19.1,70,0.00,,,0.00,Rainwise IP-100,2013-02-27 16:09:00,
2013-02-27 11:14:00,37.4,29.0,30.14,SE,135,9.6,20.5,71,0.00,,,0.00,Rainwise IP-100,2013-02-27 16:14:00,
2013-02-27 11:19:00,37.3,29.0,30.14,ESE,112,9.8,21.2,72,0.00,,,0.00,Rainwise IP-100,2013-02-27 16:19:00,
2013-02-27 11:24:00,37.3,29.0,30.16,SSE,157,14.2,19.1,73,0.00,,,0.00,Rainwise IP-100,2013-02-27 16:24:00,
2013-02-27 11:29:00,37.4,29.0,30.14,ESE,112,12.4,19.1,73,0.00,,,0.00,Rainwise IP-100,2013-02-27 16:29:00,
2013-02-27 11:34:00,37.4,29.0,30.14,ESE,112,7.0,22.6,72,0.00,,,0.00,Rainwise IP-100,2013-02-27 16:34:00,
2013-02-27 11:39:00,37.5,29.0,30.14,SE,135,10.0,18.0,71,0.00,,,0.00,Rainwise IP-100,2013-02-27 16:39:00,
2013-02-27 11:44:00,37.5,29.0,30.12,ESE,112,13.8,19.1,71,0.00,,,0.00,Rainwise IP-100,2013-02-27 16:44:00,
2013-02-27 11:49:00,37.5,29.0,30.10,ESE,112,14.5,20.5,71,0.00,,,0.00,Rainwise IP-100,2013-02-27 16:49:00,
2013-02-27 11:54:00,37.4,29.0,30.12,ESE,112,11.7,20.3,73,0.00,,,0.00,Rainwise IP-100,2013-02-27 16:54:00,
2013-02-27 11:59:00,37.4,29.0,30.11,ESE,112,16.6,21.5,73,0.00,,,0.00,Rainwise IP-100,2013-02-27 16:59:00,
2013-02-27 12:04:00,37.4,29.0,30.12,ESE,112,12.4,20.5,73,0.00,,,0.00,Rainwise IP-100,2013-02-27 17:04:00,
2013-02-27 12:09:00,37.5,31.0,30.12,ESE,112,10.5,17.5,73,0.00,,,0.00,Rainwise IP-100,2013-02-27 17:09:00,
2013-02-27 12:14:00,37.7,29.0,30.12,ESE,112,16.3,24.7,71,0.00,,,0.00,Rainwise IP-100,2013-02-27 17:14:00,
2013-02-27 12:19:00,37.8,29.0,30.12,SE,135,18.7,23.3,70,0.00,,,0.00,Rainwise IP-100,2013-02-27 17:19:00,
2013-02-27 12:24:00,37.7,29.0,30.10,ESE,112,14.7,24.5,70,0.00,,,0.00,Rainwise IP-100,2013-02-27 17:24:00,
2013-02-27 12:29:00,38.0,29.0,30.10,ESE,112,17.3,17.5,70,0.00,,,0.00,Rainwise IP-100,2013-02-27 17:29:00,
2013-02-27 12:34:00,38.3,29.0,30.10,ESE,112,7.5,22.6,70,0.00,,,0.00,Rainwise IP-100,2013-02-27 17:34:00,
2013-02-27 12:39:00,38.4,29.0,30.10,SSE,157,7.7,18.0,70,0.00,,,0.00,Rainwise IP-100,2013-02-27 17:39:00,
2013-02-27 12:44:00,38.4,29.0,30.10,SE,135,7.0,21.9,71,0.00,,,0.00,Rainwise IP-100,2013-02-27 17:44:00,
2013-02-27 12:49:00,38.1,31.0,30.10,SE,135,5.8,20.8,72,0.00,,,0.00,Rainwise IP-100,2013-02-27 17:49:00,
2013-02-27 12:54:00,38.0,31.0,30.11,ESE,112,13.3,19.1,73,0.00,,,0.00,Rainwise IP-100,2013-02-27 17:54:00,
2013-02-27 12:59:00,37.9,31.0,30.11,ESE,112,10.7,20.8,72,0.00,,,0.00,Rainwise IP-100,2013-02-27 17:59:00,
2013-02-27 13:04:00,37.4,29.0,30.10,East,90,14.9,19.6,73,0.00,,,0.00,Rainwise IP-100,2013-02-27 18:04:00,
2013-02-27 13:09:00,37.1,31.0,30.10,SSE,157,11.7,21.7,75,0.00,,,0.00,Rainwise IP-100,2013-02-27 18:09:00,
2013-02-27 13:14:00,37.0,31.0,30.08,SSE,157,13.8,23.8,75,0.00,,,0.00,Rainwise IP-100,2013-02-27 18:14:00,
2013-02-27 13:19:00,37.0,31.0,30.09,ESE,112,12.1,20.8,75,0.00,,,0.00,Rainwise IP-100,2013-02-27 18:19:00,
2013-02-27 13:24:00,37.0,31.0,30.06,ESE,112,16.6,19.8,76,0.00,,,0.00,Rainwise IP-100,2013-02-27 18:24:00,
2013-02-27 13:29:00,37.1,31.0,30.08,ESE,112,10.0,24.5,77,0.00,,,0.00,Rainwise IP-100,2013-02-27 18:29:00,
2013-02-27 13:34:00,37.3,31.0,30.06,ESE,112,8.2,21.2,76,0.00,,,0.00,Rainwise IP-100,2013-02-27 18:34:00,
2013-02-27 13:39:00,37.2,31.0,30.08,SSE,157,5.1,21.7,76,0.00,,,0.00,Rainwise IP-100,2013-02-27 18:39:00,
2013-02-27 13:44:00,36.9,31.0,30.06,SSE,157,17.7,21.7,75,0.00,,,0.00,Rainwise IP-100,2013-02-27 18:44:00,
2013-02-27 13:49:00,36.7,29.0,30.07,ESE,112,16.6,24.5,74,0.00,,,0.00,Rainwise IP-100,2013-02-27 18:49:00,
2013-02-27 13:54:00,36.6,29.0,30.06,South,180,11.2,22.9,74,0.00,,,0.00,Rainwise IP-100,2013-02-27 18:54:00,
2013-02-27 13:59:00,36.5,29.0,30.07,ESE,112,7.7,22.4,74,0.00,,,0.00,Rainwise IP-100,2013-02-27 18:59:00,
2013-02-27 14:04:00,36.5,31.0,30.06,ESE,112,17.7,24.5,75,0.00,,,0.00,Rainwise IP-100,2013-02-27 19:04:00,
2013-02-27 14:09:00,36.5,31.0,30.04,ESE,112,17.5,26.1,75,0.00,,,0.00,Rainwise IP-100,2013-02-27 19:09:00,
2013-02-27 14:14:00,36.4,28.0,30.06,SE,135,15.9,23.6,72,0.00,,,0.00,Rainwise IP-100,2013-02-27 19:14:00,
2013-02-27 14:19:00,36.4,28.0,30.09,ESE,112,15.6,20.1,72,0.00,,,0.00,Rainwise IP-100,2013-02-27 19:19:00,
2013-02-27 14:24:00,36.4,28.0,30.06,ESE,112,16.3,20.8,73,0.00,,,0.00,Rainwise IP-100,2013-02-27 19:24:00,
2013-02-27 14:29:00,36.4,28.0,30.07,SE,135,11.9,22.9,72,0.00,,,0.00,Rainwise IP-100,2013-02-27 19:29:00,
2013-02-27 14:34:00,36.5,29.0,30.07,ESE,112,14.0,19.4,72,0.00,,,0.00,Rainwise IP-100,2013-02-27 19:34:00,
2013-02-27 14:39:00,36.5,29.0,30.07,SE,135,16.3,21.2,72,0.00,,,0.00,Rainwise IP-100,2013-02-27 19:39:00,
2013-02-27 14:44:00,36.5,29.0,30.07,ESE,112,9.3,18.9,72,0.00,,,0.00,Rainwise IP-100,2013-02-27 19:44:00,
2013-02-27 14:49:00,36.5,29.0,30.08,SE,135,10.7,19.8,73,0.00,,,0.00,Rainwise IP-100,2013-02-27 19:49:00,
2013-02-27 14:54:00,36.5,29.0,30.04,SE,135,11.7,20.3,72,0.00,,,0.00,Rainwise IP-100,2013-02-27 19:54:00,
2013-02-27 14:59:00,36.5,29.0,30.06,ESE,112,14.0,19.4,73,0.00,,,0.00,Rainwise IP-100,2013-02-27 19:59:00,
2013-02-27 15:04:00,36.5,29.0,30.04,East,90,10.3,17.5,73,0.00,,,0.00,Rainwise IP-100,2013-02-27 20:04:00,
2013-02-27 15:09:00,36.6,29.0,30.05,ESE,112,10.3,19.6,73,0.00,,,0.00,Rainwise IP-100,2013-02-27 20:09:00,
2013-02-27 15:14:00,36.7,29.0,30.03,ESE,112,9.3,18.9,73,0.00,,,0.00,Rainwise IP-100,2013-02-27 20:14:00,
2013-02-27 15:19:00,36.7,29.0,30.06,SSE,157,13.5,20.5,73,0.00,,,0.00,Rainwise IP-100,2013-02-27 20:19:00,
2013-02-27 15:24:00,36.7,29.0,30.05,ESE,112,12.4,16.6,73,0.00,,,0.00,Rainwise IP-100,2013-02-27 20:24:00,
2013-02-27 15:29:00,36.7,29.0,30.05,ESE,112,9.1,14.5,73,0.00,,,0.00,Rainwise IP-100,2013-02-27 20:29:00,
2013-02-27 15:34:00,36.8,29.0,30.05,SSE,157,5.8,20.1,72,0.00,,,0.00,Rainwise IP-100,2013-02-27 20:34:00,
2013-02-27 15:39:00,37.0,29.0,30.02,ESE,112,13.1,16.3,71,0.00,,,0.00,Rainwise IP-100,2013-02-27 20:39:00,
2013-02-27 15:44:00,37.0,29.0,30.03,East,90,5.4,16.6,71,0.00,,,0.00,Rainwise IP-100,2013-02-27 20:44:00,
2013-02-27 15:49:00,36.9,28.0,30.01,ESE,112,9.1,18.0,70,0.00,,,0.00,Rainwise IP-100,2013-02-27 20:49:00,
2013-02-27 15:54:00,36.9,28.0,30.03,East,90,7.5,16.8,70,0.00,,,0.00,Rainwise IP-100,2013-02-27 20:54:00,
2013-02-27 15:59:00,36.9,28.0,30.01,ESE,112,9.3,17.5,70,0.00,,,0.00,Rainwise IP-100,2013-02-27 20:59:00,
2013-02-27 16:04:00,36.8,28.0,29.99,East,90,11.0,19.1,70,0.00,,,0.00,Rainwise IP-100,2013-02-27 21:04:00,
2013-02-27 16:09:00,36.8,28.0,30.04,ESE,112,7.7,17.5,70,0.00,,,0.00,Rainwise IP-100,2013-02-27 21:09:00,
2013-02-27 16:14:00,36.7,28.0,30.04,SE,135,11.2,15.9,70,0.00,,,0.00,Rainwise IP-100,2013-02-27 21:14:00,
2013-02-27 16:20:00,36.6,29.0,30.00,ESE,112,4.7,18.7,71,0.00,,,0.00,Rainwise IP-100,2013-02-27 21:20:00,
2013-02-27 16:25:00,36.6,29.0,29.99,ESE,112,6.8,18.9,71,0.00,,,0.00,Rainwise IP-100,2013-02-27 21:25:00,
2013-02-27 16:30:00,36.6,29.0,30.00,ESE,112,5.8,14.5,71,0.00,,,0.00,Rainwise IP-100,2013-02-27 21:30:00,
2013-02-27 16:34:00,36.5,29.0,30.00,ESE,112,5.6,12.8,72,0.00,,,0.00,Rainwise IP-100,2013-02-27 21:34:00,
2013-02-27 16:39:00,36.5,29.0,30.02,ESE,112,4.0,13.1,72,0.00,,,0.00,Rainwise IP-100,2013-02-27 21:39:00,
2013-02-27 16:44:00,36.5,29.0,29.99,ESE,112,9.6,14.5,71,0.00,,,0.00,Rainwise IP-100,2013-02-27 21:44:00,
2013-02-27 16:49:00,36.5,29.0,30.01,SE,135,10.3,11.2,71,0.00,,,0.00,Rainwise IP-100,2013-02-27 21:49:00,
2013-02-27 16:54:00,36.5,28.0,30.01,ESE,112,5.8,16.8,70,0.00,,,0.00,Rainwise IP-100,2013-02-27 21:54:00,
2013-02-27 16:59:00,36.5,28.0,29.98,SSE,157,8.9,13.3,69,0.00,,,0.00,Rainwise IP-100,2013-02-27 21:59:00,
2013-02-27 17:04:00,36.6,28.0,29.98,SE,135,10.7,14.0,69,0.00,,,0.00,Rainwise IP-100,2013-02-27 22:04:00,
2013-02-27 17:09:00,36.6,28.0,29.99,SE,135,6.5,12.8,70,0.00,,,0.00,Rainwise IP-100,2013-02-27 22:09:00,
2013-02-27 17:14:00,36.5,29.0,29.99,ESE,112,6.1,11.4,71,0.00,,,0.00,Rainwise IP-100,2013-02-27 22:14:00,
2013-02-27 17:19:00,36.5,29.0,30.02,ESE,112,11.9,14.0,71,0.00,,,0.00,Rainwise IP-100,2013-02-27 22:19:00,
2013-02-27 17:24:00,36.5,29.0,30.02,ESE,112,13.3,14.2,72,0.00,,,0.00,Rainwise IP-100,2013-02-27 22:24:00,
2013-02-27 17:29:00,36.5,29.0,30.01,ESE,112,10.5,15.4,72,0.00,,,0.00,Rainwise IP-100,2013-02-27 22:29:00,
2013-02-27 17:34:00,36.4,28.0,30.01,SE,135,7.0,15.4,72,0.00,,,0.00,Rainwise IP-100,2013-02-27 22:34:00,
2013-02-27 17:39:00,36.4,28.0,30.00,ESE,112,6.1,16.3,73,0.00,,,0.00,Rainwise IP-100,2013-02-27 22:39:00,
2013-02-27 17:45:00,36.4,28.0,30.00,SE,135,14.9,21.7,72,0.00,,,0.00,Rainwise IP-100,2013-02-27 22:45:00,
2013-02-27 17:50:00,36.4,28.0,30.01,SSE,157,9.6,16.3,72,0.00,,,0.00,Rainwise IP-100,2013-02-27 22:50:00,
2013-02-27 17:55:00,36.5,29.0,29.98,ESE,112,9.1,19.1,72,0.00,,,0.00,Rainwise IP-100,2013-02-27 22:55:00,
2013-02-27 18:00:00,36.5,29.0,29.96,ESE,112,6.5,14.9,72,0.00,,,0.00,Rainwise IP-100,2013-02-27 23:00:00,
2013-02-27 18:05:00,36.4,28.0,29.97,ESE,112,14.2,16.3,73,0.00,,,0.00,Rainwise IP-100,2013-02-27 23:05:00,
2013-02-27 18:10:00,36.4,29.0,29.99,SE,135,11.7,17.7,74,0.00,,,0.00,Rainwise IP-100,2013-02-27 23:10:00,
2013-02-27 18:15:00,36.2,29.0,29.97,ESE,112,10.5,19.6,76,0.00,,,0.00,Rainwise IP-100,2013-02-27 23:15:00,
2013-02-27 18:20:00,35.8,31.0,29.97,ESE,112,15.2,19.8,79,0.00,,,0.00,Rainwise IP-100,2013-02-27 23:20:00,
2013-02-27 18:25:00,35.7,31.0,29.97,East,90,11.9,16.6,80,0.00,,,0.00,Rainwise IP-100,2013-02-27 23:25:00,
2013-02-27 18:30:00,35.4,29.0,29.95,ESE,112,14.9,16.6,82,0.00,,,0.00,Rainwise IP-100,2013-02-27 23:30:00,
2013-02-27 18:35:00,35.2,31.0,29.96,ESE,112,14.0,20.8,83,0.00,,,0.00,Rainwise IP-100,2013-02-27 23:35:00,
2013-02-27 18:40:00,34.9,31.0,29.96,ESE,112,6.8,23.8,84,0.00,,,0.00,Rainwise IP-100,2013-02-27 23:40:00,
2013-02-27 18:45:00,34.7,31.0,29.95,ESE,112,9.8,17.5,84,0.00,,,0.00,Rainwise IP-100,2013-02-27 23:45:00,
2013-02-27 18:50:00,34.5,31.0,29.96,SE,135,11.7,18.9,86,0.00,,,0.00,Rainwise IP-100,2013-02-27 23:50:00,
2013-02-27 18:55:00,34.4,31.0,29.95,SSE,157,9.3,24.0,86,0.00,,,0.00,Rainwise IP-100,2013-02-27 23:55:00,
2013-02-27 19:00:00,34.5,31.0,29.95,SSE,157,7.2,19.4,85,0.00,,,0.00,Rainwise IP-100,2013-02-28 00:00:00,
2013-02-27 19:05:00,34.7,31.0,29.94,ESE,112,7.9,15.9,85,0.00,,,0.00,Rainwise IP-100,2013-02-28 00:05:00,
2013-02-27 19:10:00,35.0,31.0,29.96,ESE,112,17.5,34.0,85,0.06,,,0.01,Rainwise IP-100,2013-02-28 00:10:00,
2013-02-27 19:15:00,35.0,31.0,29.95,SE,135,14.5,25.9,84,0.06,,,0.01,Rainwise IP-100,2013-02-28 00:15:00,
2013-02-27 19:20:00,34.4,31.0,29.97,ESE,112,23.8,24.9,85,0.00,,,0.01,Rainwise IP-100,2013-02-28 00:20:00,
2013-02-27 19:25:00,33.5,31.0,29.97,SSE,157,12.6,23.8,87,0.00,,,0.01,Rainwise IP-100,2013-02-28 00:25:00,
2013-02-27 19:30:00,32.8,31.0,29.95,ESE,112,15.6,25.2,89,0.00,,,0.01,Rainwise IP-100,2013-02-28 00:30:00,
2013-02-27 19:35:00,32.6,31.0,29.96,ESE,112,14.2,22.2,90,0.00,,,0.01,Rainwise IP-100,2013-02-28 00:35:00,
2013-02-27 19:40:00,32.8,31.0,29.95,ESE,112,9.3,17.0,89,0.00,,,0.01,Rainwise IP-100,2013-02-28 00:40:00,
2013-02-27 19:45:00,32.9,31.0,29.93,ESE,112,10.3,18.4,88,0.00,,,0.01,Rainwise IP-100,2013-02-28 00:45:00,
2013-02-27 19:50:00,33.0,31.0,29.93,South,180,11.7,19.4,87,0.00,,,0.01,Rainwise IP-100,2013-02-28 00:50:00,
2013-02-27 19:55:00,32.8,31.0,29.96,SSE,157,15.6,23.8,88,0.00,,,0.01,Rainwise IP-100,2013-02-28 00:55:00,
2013-02-27 20:00:00,32.8,31.0,29.93,ESE,112,18.9,23.3,90,0.00,,,0.01,Rainwise IP-100,2013-02-28 01:00:00,
2013-02-27 20:05:00,33.1,31.0,29.94,South,180,5.6,30.5,87,0.00,,,0.01,Rainwise IP-100,2013-02-28 01:05:00,
2013-02-27 20:10:00,33.3,29.0,29.93,SSE,157,15.9,22.4,83,0.00,,,0.01,Rainwise IP-100,2013-02-28 01:10:00,
2013-02-27 20:15:00,33.4,28.0,29.96,SSE,157,9.1,25.2,80,0.00,,,0.01,Rainwise IP-100,2013-02-28 01:15:00,
2013-02-27 20:20:00,33.2,28.0,29.94,ESE,112,23.8,23.8,80,0.00,,,0.01,Rainwise IP-100,2013-02-28 01:20:00,
2013-02-27 20:25:00,33.0,28.0,29.93,ESE,112,15.9,29.6,81,0.00,,,0.01,Rainwise IP-100,2013-02-28 01:25:00,
2013-02-27 20:30:00,33.0,29.0,29.91,ESE,112,10.0,28.9,82,0.00,,,0.01,Rainwise IP-100,2013-02-28 01:30:00,
2013-02-27 20:35:00,33.0,28.0,29.90,SE,135,17.5,24.5,81,0.00,,,0.01,Rainwise IP-100,2013-02-28 01:35:00,
2013-02-27 20:40:00,33.2,28.0,29.94,SSE,157,14.0,26.1,79,0.00,,,0.01,Rainwise IP-100,2013-02-28 01:40:00,
2013-02-27 20:45:00,33.5,29.0,29.90,ESE,112,16.1,22.9,78,0.00,,,0.01,Rainwise IP-100,2013-02-28 01:45:00,
2013-02-27 20:50:00,33.6,29.0,29.91,SSE,157,19.1,29.6,79,0.00,,,0.01,Rainwise IP-100,2013-02-28 01:50:00,
2013-02-27 20:55:00,33.5,29.0,29.92,ESE,112,27.5,27.5,81,0.00,,,0.01,Rainwise IP-100,2013-02-28 01:55:00,
2013-02-27 21:00:00,33.2,29.0,29.88,SSE,157,16.8,28.2,82,0.00,,,0.01,Rainwise IP-100,2013-02-28 02:00:00,
2013-02-27 21:05:00,32.8,28.0,29.92,ESE,112,10.3,24.9,81,0.00,,,0.01,Rainwise IP-100,2013-02-28 02:05:00,
2013-02-27 21:10:00,32.4,28.0,29.90,ESE,112,15.6,27.7,83,0.00,,,0.01,Rainwise IP-100,2013-02-28 02:10:00,
2013-02-27 21:15:00,32.1,29.0,29.92,ESE,112,23.6,27.5,87,0.00,,,0.01,Rainwise IP-100,2013-02-28 02:15:00,
2013-02-27 21:20:00,31.9,29.0,29.92,ESE,112,16.6,30.5,91,0.00,,,0.01,Rainwise IP-100,2013-02-28 02:20:00,
2013-02-27 21:25:00,31.7,31.0,29.89,ESE,112,28.9,28.9,93,0.00,,,0.01,Rainwise IP-100,2013-02-28 02:25:00,
2013-02-27 21:30:00,31.6,31.0,29.88,ESE,112,24.7,33.1,95,0.00,,,0.01,Rainwise IP-100,2013-02-28 02:30:00,
2013-02-27 21:35:00,31.5,31.0,29.88,ESE,112,15.4,28.7,97,0.00,,,0.01,Rainwise IP-100,2013-02-28 02:35:00,
2013-02-27 21:40:00,31.6,31.0,29.87,SE,135,11.9,30.5,97,0.00,,,0.01,Rainwise IP-100,2013-02-28 02:40:00,
2013-02-27 21:45:00,31.6,32.0,29.88,SE,135,9.3,28.9,98,0.00,,,0.01,Rainwise IP-100,2013-02-28 02:45:00,
2013-02-27 21:50:00,31.6,32.0,29.88,SE,135,8.4,24.7,99,0.00,,,0.01,Rainwise IP-100,2013-02-28 02:50:00,
2013-02-27 21:55:00,31.4,31.0,29.88,East,90,10.7,18.0,99,0.00,,,0.01,Rainwise IP-100,2013-02-28 02:55:00,
2013-02-27 22:00:00,31.4,31.0,29.85,ESE,112,11.9,25.9,99,0.00,,,0.01,Rainwise IP-100,2013-02-28 03:00:00,
2013-02-27 22:05:00,31.6,32.0,29.87,ESE,112,16.8,21.9,99,0.00,,,0.01,Rainwise IP-100,2013-02-28 03:05:00,
2013-02-27 22:10:00,31.7,32.0,29.88,SSE,157,19.6,23.6,100,0.00,,,0.01,Rainwise IP-100,2013-02-28 03:10:00,
2013-02-27 22:15:00,31.8,32.0,29.87,ESE,112,14.7,26.6,100,0.00,,,0.01,Rainwise IP-100,2013-02-28 03:15:00,
2013-02-27 22:20:00,31.9,32.0,29.83,ESE,112,13.1,27.7,100,0.00,,,0.01,Rainwise IP-100,2013-02-28 03:20:00,
2013-02-27 22:25:00,32.0,32.0,29.85,ESE,112,25.6,25.6,100,0.00,,,0.01,Rainwise IP-100,2013-02-28 03:25:00,
2013-02-27 22:30:00,32.0,32.0,29.86,SE,135,15.6,25.6,100,0.00,,,0.01,Rainwise IP-100,2013-02-28 03:30:00,
2013-02-27 22:35:00,32.0,32.0,29.84,SE,135,13.8,20.3,100,0.00,,,0.01,Rainwise IP-100,2013-02-28 03:35:00,
2013-02-27 22:40:00,32.0,32.0,29.83,SE,135,16.3,33.8,100,0.00,,,0.01,Rainwise IP-100,2013-02-28 03:40:00,
2013-02-27 22:45:00,32.0,32.0,29.84,ESE,112,19.4,29.1,100,0.00,,,0.01,Rainwise IP-100,2013-02-28 03:45:00,
2013-02-27 22:50:00,32.1,32.0,29.83,ESE,112,19.4,25.6,100,0.00,,,0.01,Rainwise IP-100,2013-02-28 03:50:00,
2013-02-27 22:55:00,32.1,32.0,29.83,South,180,22.9,24.2,99,0.00,,,0.01,Rainwise IP-100,2013-02-28 03:55:00,
2013-02-27 23:00:00,32.2,32.0,29.80,ESE,112,22.6,27.5,99,0.00,,,0.01,Rainwise IP-100,2013-02-28 04:00:00,
2013-02-27 23:05:00,32.4,32.0,29.80,ESE,112,13.5,28.7,99,0.00,,,0.01,Rainwise IP-100,2013-02-28 04:05:00,
2013-02-27 23:10:00,32.4,32.0,29.81,SE,135,11.2,24.9,99,0.00,,,0.01,Rainwise IP-100,2013-02-28 04:10:00,
2013-02-27 23:15:00,32.5,33.0,29.80,ESE,112,13.1,20.8,99,0.00,,,0.01,Rainwise IP-100,2013-02-28 04:15:00,
2013-02-27 23:20:00,32.5,33.0,29.81,SSE,157,9.8,28.7,99,0.00,,,0.01,Rainwise IP-100,2013-02-28 04:20:00,
2013-02-27 23:25:00,32.5,33.0,29.82,ESE,112,18.4,20.5,99,0.00,,,0.01,Rainwise IP-100,2013-02-28 04:25:00,
2013-02-27 23:30:00,32.5,33.0,29.78,ESE,112,8.4,27.0,99,0.00,,,0.01,Rainwise IP-100,2013-02-28 04:30:00,
2013-02-27 23:35:00,32.6,33.0,29.77,SE,135,17.5,24.9,99,0.00,,,0.01,Rainwise IP-100,2013-02-28 04:35:00,
2013-02-27 23:40:00,32.8,33.0,29.81,ESE,112,18.7,25.6,99,0.00,,,0.01,Rainwise IP-100,2013-02-28 04:40:00,
2013-02-27 23:45:00,32.9,33.0,29.76,ESE,112,18.0,27.3,99,0.00,,,0.01,Rainwise IP-100,2013-02-28 04:45:00,
2013-02-27 23:50:00,33.1,33.0,29.80,South,180,13.3,27.5,98,0.00,,,0.01,Rainwise IP-100,2013-02-28 04:50:00,
2013-02-27 23:55:00,33.1,33.0,29.80,ESE,112,10.7,21.9,98,0.00,,,0.01,Rainwise IP-100,2013-02-28 04:55:00,